Starlink 36063

operational
NORAD ID: 66606 Int'l Des: 2025-270 Owner: SPXS Country: US Constellation: starlink
LEOCIRCULAR

Starlink 36063について

説明を読み込み中...

リアルタイム位置

3D地球を読み込み中...

次回通過

高度履歴

Altitude vs Time

uPlot chart will show altitude changes over time

軌道要素

1 66606U 25270U 26062.44982243 .00024743 00000-0 90499-3 0 9996
2 66606 43.0033 91.2349 0002135 278.8820 81.1790 15.27603054 16751
Epoch: Mar 3, 2026 • Age: 28 hours

現在のステータス

高度 485.9 km
速度 7.63 km/s
衛星直下点 37.42°N, 85.11°W
打ち上げ日 Nov 22, 2025
運用期間 0.2 years
タイプ internet

技術仕様

分類 Payload
質量 575.00 kg
乾燥質量 530.00 kg
総質量 575.00 kg
長さ 0.30 m
直径 4.10 m
スパン 29.00 m
形状 Box + pan
製造者 SPXS
バスタイプ Starlink V2MO
フェーズステータス In Orbit
所有者/国 SPXS/US

大規模コンステレーション

Loading constellations...